Location: Unspecified
(0.0000°N, 0.0000°E)
Time: 01:01:59
(UTC+00:00)

STARLINK-1037 - Pass Details

Date: 05 December 2020
Orbit: 544 x 546 km, 53.0° (Epoch: 16 January)

Event Time Altitude Azimuth Distance (km) Brightness Sun altitude
Rises 18:31:44 0° 345° (NNW) 2,691 7.1 -9.4°
Reaches altitude 10° 18:34:13 10° 358° (N) 1,801 6.0 -10.0°
Maximum altitude 18:37:41 26° 56° (NE) 1,076 4.5 -10.8°
Drops below altitude 10° 18:41:10 10° 114° (ESE) 1,806 5.9 -11.6°
Sets 18:43:38 0° 126° (SE) 2,700 6.8 -12.2°
